DUNNNINGN Weather Reports


time (UTC)temp
C
wind
direction
speed
KPH
gust
KPH
rain 1hr
cm
rain 24hr
cm
rain mn
cm
humidity
%
barometer
mb
20260507040216 7 179 3.2 0.0 0.00 0.00 0.23 93 1012.2
20260507033211 7 179 3.2 0.0 0.00 0.00 0.20 93 1012.0
20260507030211 7 179 4.8 0.0 0.00 0.00 0.18 93 1011.8
20260507023211 7 171 8.0 0.0 0.00 0.00 0.15 92 1011.6
20260507020211 7 171 3.2 0.0 0.00 0.00 0.10 92 1011.4
20260507013212 7 197 3.2 0.0 0.00 0.00 0.08 92 1011.2
20260507010211 7 194 4.8 0.0 0.00 0.00 0.08 91 1011.0
20260507003209 7 218 11.3 0.0 0.00 0.00 0.08 92 1010.9
20260507000209 7 188 14.5 0.0 0.00 0.00 0.08 92 1011.0
20260506233209 7 236 12.9 0.0 0.00 0.00 0.08 92 1011.0
20260506230209 7 252 8.0 0.0 0.00 0.00 0.08 92 1010.9
20260506223209 7 194 8.0 0.0 0.00 0.00 0.05 92 1011.1
20260506213209 7 188 6.4 0.0 0.00 0.00 0.69 92 1010.9
20260506210210 7 174 4.8 0.0 0.00 0.00 0.69 92 1010.5
20260506203210 8 225 6.4 0.0 0.00 0.00 0.64 91 1010.5
20260506200210 8 240 9.7 0.0 0.00 0.00 0.58 91 1010.3
20260506193215 8 204 9.7 0.0 0.00 0.00 0.48 91 1009.9
20260506190211 8 186 12.9 0.0 0.00 0.00 0.43 91 1009.5
20260506183209 8 184 8.0 0.0 0.00 0.00 0.36 91 1009.2
20260506180216 8 240 6.4 0.0 0.00 0.00 0.33 91 1008.9
20260506173210 8 205 9.7 0.0 0.00 0.00 0.30 91 1008.5
20260506170215 8 262 3.2 0.0 0.00 0.00 0.28 91 1008.3
20260506163210 9 252 9.7 0.0 0.00 0.00 0.23 89 1008.4
20260506160210 9 231 12.9 0.0 0.00 0.00 0.23 87 1008.3
20260506153210 10 234 14.5 0.0 0.00 0.00 0.20 88 1008.1
20260506150210 11 269 11.3 0.0 0.00 0.00 0.18 89 1007.7
20260506143210 11 230 8.0 0.0 0.00 0.00 0.15 91 1007.3
20260506140210 11 298 9.7 0.0 0.00 0.00 0.15 91 1006.9
20260506133211 11 246 16.1 0.0 0.00 0.00 0.15 91 1006.9
20260506130211 11 263 11.3 0.0 0.00 0.00 0.10 91 1006.5
20260506123210 11 290 12.9 0.0 0.00 0.00 0.10 90 1006.4
20260506120210 12 236 16.1 0.0 0.00 0.00 0.03 85 1006.3
20260506113217 12 265 8.0 0.0 0.00 0.00 0.03 78 1006.3
20260506110210 14 13 6.4 0.0 0.00 0.00 0.03 74 1006.1
20260506100213 15 224 4.8 0.0 0.00 0.00 0.03 69 1006.3
20260506093211 15 207 6.4 0.0 0.00 0.00 0.03 70 1006.5
20260506090211 14 185 6.4 0.0 0.00 0.00 0.03 72 1006.5
20260506083211 14 147 8.0 0.0 0.00 0.00 0.03 73 1006.4
20260506080212 13 197 12.9 0.0 0.00 0.00 0.03 77 1006.5
20260506073211 12 157 12.9 0.0 0.00 0.00 0.03 83 1006.5
20260506070212 11 159 6.4 0.0 0.00 0.00 0.03 88 1006.4
20260506060210 7 180 6.4 0.0 0.00 0.00 0.03 94 1006.7
20260506050211 6 165 8.0 0.0 0.00 0.00 0.00 93 1006.9
20260506043211 6 171 6.4 0.0 0.00 0.00 0.00 93 1007.2